EW0890 Weather Reports


Display with metric or nautical units.
time (UTC)temp
F
wind
direction
speed
MPH
gust
MPH
rain 1hr
in
rain 24hr
in
rain mn
in
humidity
%
barometer
mb
20260831183107 90 250 2.0 5.0 0.00 0.00 0.00 65 1015.7
20260831183028 90 200 2.0 5.0 0.00 0.00 0.00 67 1015.4
20260831182513 90 213 2.0 4.0 0.00 0.00 0.00 64 1015.5
20260831182016 89 345 2.0 5.0 0.00 0.00 0.00 63 1015.7
20260831181606 89 275 2.0 6.0 0.00 0.00 0.00 67 1015.8
20260831181535 89 274 2.0 6.0 0.00 0.00 0.00 65 1015.8
20260831181006 89 226 2.0 6.0 0.00 0.00 0.00 64 1015.8
20260831180507 89 231 2.0 5.0 0.00 0.00 0.00 66 1015.8
20260831180111 89 224 1.0 4.0 0.00 0.00 0.00 64 1015.8
20260831180023 89 191 1.0 3.0 0.00 0.00 0.00 67 1015.8
20260831175507 88 160 2.0 4.0 0.00 0.00 0.00 65 1015.8
20260831175008 88 318 2.0 5.0 0.00 0.00 0.00 67 1015.8
20260831174634 88 115 2.0 5.0 0.00 0.00 0.00 69 1015.8
20260831174520 88 224 2.0 5.0 0.00 0.00 0.00 67 1015.9
20260831174010 88 148 2.0 5.0 0.00 0.00 0.00 63 1015.9
20260831173509 88 247 2.0 4.0 0.00 0.00 0.00 68 1015.9
20260831173105 88 294 2.0 4.0 0.00 0.00 0.00 67 1015.9
20260831173027 88 245 2.0 4.0 0.00 0.00 0.00 65 1016.0
20260831172511 88 295 1.0 7.0 0.00 0.00 0.00 69 1016.0
20260831172017 87 266 1.0 7.0 0.00 0.00 0.00 68 1016.1
20260831171609 86 293 2.0 6.0 0.00 0.00 0.00 67 1016.2
20260831171541 86 274 2.0 6.0 0.00 0.00 0.00 67 1016.2
20260831171014 86 242 2.0 6.0 0.00 0.00 0.00 66 1016.3
20260831170522 86 267 1.0 4.0 0.00 0.00 0.00 69 1016.3
20260831170105 85 290 1.0 4.0 0.00 0.00 0.00 71 1016.3
20260831170100 85 285 2.0 4.0 0.00 0.00 0.00 71 1016.3
20260831165502 85 313 1.0 5.0 0.00 0.00 0.00 68 1016.4
20260831165007 85 260 2.0 5.0 0.00 0.00 0.00 68 1016.4
20260831164626 85 284 2.0 5.0 0.00 0.00 0.00 68 1016.5
20260831164517 85 263 2.0 4.0 0.00 0.00 0.00 68 1016.4
20260831164009 85 238 2.0 5.0 0.00 0.00 0.00 68 1016.4
20260831163509 85 278 3.0 5.0 0.00 0.00 0.00 67 1016.4
20260831163106 85 310 3.0 5.0 0.00 0.00 0.00 66 1016.4
20260831163028 85 241 3.0 5.0 0.00 0.00 0.00 67 1016.4
20260831162513 85 200 2.0 5.0 0.00 0.00 0.00 68 1016.4
20260831162015 85 283 2.0 7.0 0.00 0.00 0.00 67 1016.4
20260831161608 84 288 3.0 7.0 0.00 0.00 0.00 67 1016.4
20260831161531 84 238 3.0 7.0 0.00 0.00 0.00 67 1016.4
20260831161014 84 231 3.0 5.0 0.00 0.00 0.00 67 1016.3
20260831160515 84 290 2.0 6.0 0.00 0.00 0.00 69 1016.3
20260831160105 84 256 2.0 6.0 0.00 0.00 0.00 69 1016.3
20260831160034 84 296 1.0 6.0 0.00 0.00 0.00 71 1016.4
20260831155518 83 302 2.0 5.0 0.00 0.00 0.00 71 1016.4
20260831155018 82 310 3.0 4.0 0.00 0.00 0.00 69 1016.4
20260831154634 82 296 2.0 6.0 0.00 0.00 0.00 71 1016.4
20260831154537 82 229 2.0 6.0 0.00 0.00 0.00 69 1016.4
20260831154008 82 314 3.0 6.0 0.00 0.00 0.00 69 1016.4
20260831153509 82 274 2.0 6.0 0.00 0.00 0.00 72 1016.4
20260831153120 81 278 2.0 5.0 0.00 0.00 0.00 74 1016.2
20260831153018 80 262 2.0 5.0 0.00 0.00 0.00 74 1016.4
20260831152510 80 278 2.0 5.0 0.00 0.00 0.00 71 1016.4
20260831152011 80 323 1.0 5.0 0.00 0.00 0.00 72 1016.4
20260831151613 80 291 2.0 5.0 0.00 0.00 0.00 71 1016.3
20260831151528 80 296 2.0 5.0 0.00 0.00 0.00 71 1016.3
20260831151013 80 307 2.0 5.0 0.00 0.00 0.00 72 1016.3
20260831150512 80 307 2.0 6.0 0.00 0.00 0.00 73 1016.3
20260831150109 79 288 2.0 6.0 0.00 0.00 0.00 72 1016.2
20260831150032 79 297 2.0 6.0 0.00 0.00 0.00 72 1016.3
20260831145514 79 271 3.0 6.0 0.00 0.00 0.00 73 1016.2
20260831145015 79 295 2.0 4.0 0.00 0.00 0.00 73 1016.2
20260831144607 79 285 2.0 4.0 0.00 0.00 0.00 73 1016.2
20260831144535 79 285 2.0 4.0 0.00 0.00 0.00 72 1016.2
20260831144015 79 292 2.0 5.0 0.00 0.00 0.00 71 1016.2
20260831143517 79 296 2.0 5.0 0.00 0.00 0.00 72 1016.3
20260831143107 79 255 3.0 9.0 0.00 0.00 0.00 70 1016.2
20260831143016 79 316 3.0 9.0 0.00 0.00 0.00 72 1016.2
20260831142509 79 278 3.0 9.0 0.00 0.00 0.00 73 1016.0
20260831142012 78 255 3.0 6.0 0.00 0.00 0.00 73 1016.1
20260831141605 78 282 2.0 5.0 0.00 0.00 0.00 74 1016.1
20260831141524 78 331 2.0 5.0 0.00 0.00 0.00 74 1016.1
20260831141012 78 293 3.0 5.0 0.00 0.00 0.00 75 1016.1
20260831140513 77 276 3.0 5.0 0.00 0.00 0.00 75 1016.2
20260831140101 77 292 2.0 5.0 0.00 0.00 0.00 76 1016.2
20260831140032 77 292 2.0 5.0 0.00 0.00 0.00 76 1016.1
20260831135515 76 153 2.0 4.0 0.00 0.00 0.00 77 1016.1
20260831135014 75 281 2.0 5.0 0.00 0.00 0.00 77 1016.1
20260831134614 75 245 2.0 5.0 0.00 0.07 0.00 76 1016.1
20260831134531 75 259 2.0 5.0 0.00 0.01 0.00 76 1016.0
20260831134015 75 304 3.0 6.0 0.00 0.02 0.00 76 1016.2
20260831133518 75 271 1.0 6.0 0.00 0.06 0.00 77 1015.9
20260831133109 75 259 2.0 5.0 0.00 0.07 0.00 77 1016.0
20260831133036 75 282 2.0 5.0 0.00 0.07 0.00 76 1016.0
20260831132516 74 284 2.0 5.0 0.00 0.07 0.00 77 1016.0
20260831132020 74 113 1.0 4.0 0.00 0.07 0.00 78 1016.0
20260831131601 74 264 2.0 6.0 0.00 0.07 0.00 78 1016.2
20260831131517 74 288 2.0 6.0 0.00 0.07 0.00 78 1016.0
20260831131014 73 288 2.0 6.0 0.00 0.07 0.00 79 1016.1
20260831130510 73 247 2.0 4.0 0.00 0.07 0.00 80 1016.0
20260831130104 72 307 1.0 3.0 0.00 0.07 0.00 81 1016.1
20260831130024 72 261 1.0 3.0 0.00 0.07 0.00 81 1015.9
20260831125513 71 165 1.0 3.0 0.00 0.07 0.00 82 1015.9
20260831125017 71 217 1.0 4.0 0.00 0.07 0.00 83 1015.9
20260831124606 70 328 1.0 4.0 0.00 0.07 0.00 83 1016.0
20260831124532 70 232 1.0 4.0 0.00 0.07 0.00 83 1016.0
20260831124020 70 258 1.0 4.0 0.00 0.07 0.00 82 1015.9
20260831123514 71 293 1.0 3.0 0.00 0.07 0.00 82 1015.9
20260831123106 71 295 1.0 3.0 0.00 0.07 0.00 82 1015.9
20260831123030 71 234 1.0 3.0 0.00 0.07 0.00 83 1015.8
20260831122518 70 235 1.0 3.0 0.00 0.07 0.00 83 1015.8
20260831122019 70 237 1.0 3.0 0.00 0.07 0.00 84 1015.8
20260831121626 70 287 1.0 3.0 0.00 0.07 0.00 84 1015.8
20260831121532 70 300 1.0 3.0 0.00 0.07 0.00 84 1015.7
20260831121016 70 287 1.0 3.0 0.00 0.07 0.00 84 1015.6
20260831120519 70 341 1.0 4.0 0.00 0.07 0.00 84 1015.6
20260831120115 69 257 1.0 4.0 0.00 0.07 0.00 84 1015.6
20260831120031 69 303 1.0 4.0 0.00 0.07 0.00 84 1015.6
20260831115509 69 286 1.0 4.0 0.00 0.07 0.00 84 1015.5
20260831115011 69 306 1.0 3.0 0.00 0.07 0.00 84 1015.5
20260831114624 69 290 1.0 4.0 0.00 0.07 0.00 83 1015.5
20260831114531 69 292 1.0 4.0 0.00 0.07 0.00 83 1015.4
20260831114003 70 287 1.0 4.0 0.00 0.07 0.00 83 1015.3
20260831113504 70 274 2.0 3.0 0.00 0.07 0.00 83 1015.3
20260831113125 70 270 1.0 4.0 0.00 0.07 0.00 83 1015.4
20260831113007 70 276 1.0 4.0 0.00 0.07 0.00 83 1015.3
20260831112506 70 285 1.0 5.0 0.00 0.07 0.00 83 1015.3
20260831112003 70 277 2.0 5.0 0.00 0.07 0.00 83 1015.3
20260831111604 70 279 2.0 4.0 0.00 0.07 0.00 83 1015.4
20260831111523 70 319 2.0 4.0 0.00 0.07 0.00 83 1015.3
20260831111010 70 221 1.0 4.0 0.00 0.07 0.00 83 1015.3
20260831110508 69 288 2.0 4.0 0.00 0.07 0.00 83 1015.2
20260831110106 69 290 1.0 3.0 0.00 0.07 0.00 83 1015.3
20260831110018 69 297 1.0 3.0 0.00 0.07 0.00 83 1015.3
20260831105507 69 217 1.0 4.0 0.00 0.07 0.00 84 1015.3
20260831105011 69 257 2.0 4.0 0.00 0.07 0.00 83 1015.3
20260831104615 69 285 2.0 4.0 0.00 0.07 0.00 83 1015.4
20260831104533 69 273 2.0 4.0 0.00 0.07 0.00 83 1015.3
20260831104010 70 278 1.0 4.0 0.00 0.07 0.00 83 1015.3
20260831103514 70 286 1.0 4.0 0.00 0.07 0.00 83 1015.3
20260831103111 70 317 2.0 4.0 0.00 0.07 0.00 83 1015.3
20260831103004 70 250 2.0 4.0 0.00 0.07 0.00 82 1015.3
20260831102504 70 248 1.0 4.0 0.00 0.07 0.00 82 1015.3
20260831102004 70 281 1.0 3.0 0.00 0.07 0.00 82 1015.3
20260831101605 70 271 1.0 4.0 0.00 0.07 0.00 82 1015.3
20260831101511 70 283 1.0 4.0 0.00 0.07 0.00 82 1015.2
20260831101005 70 286 2.0 4.0 0.00 0.07 0.00 82 1015.1
20260831100504 70 268 2.0 4.0 0.00 0.07 0.00 82 1015.0
20260831100104 70 245 1.0 4.0 0.00 0.07 0.00 82 1015.1
20260831100019 70 278 1.0 4.0 0.00 0.07 0.00 82 1015.1
20260831095507 70 282 1.0 3.0 0.00 0.07 0.00 82 1015.0
20260831095010 70 268 1.0 3.0 0.00 0.07 0.00 82 1015.0
20260831094609 70 48 1.0 3.0 0.00 0.07 0.00 82 1015.1
20260831094530 70 285 1.0 3.0 0.00 0.07 0.00 82 1015.1
20260831094012 70 290 1.0 3.0 0.00 0.07 0.00 82 1015.1
20260831093511 70 242 1.0 3.0 0.00 0.07 0.00 82 1015.1
20260831093155 70 288 1.0 4.0 0.00 0.07 0.00 82 1015.1
20260831093026 70 307 1.0 4.0 0.00 0.07 0.00 82 1015.1
20260831092514 70 261 1.0 4.0 0.00 0.07 0.00 82 1015.2
20260831092014 70 274 2.0 3.0 0.00 0.07 0.00 82 1015.2
20260831091606 70 293 1.0 3.0 0.00 0.07 0.00 82 1015.2
20260831091508 70 281 1.0 3.0 0.00 0.07 0.00 82 1015.2
20260831091003 70 282 1.0 3.0 0.00 0.07 0.00 81 1015.3
20260831090506 70 313 1.0 3.0 0.00 0.07 0.00 81 1015.2
20260831090107 70 46 1.0 3.0 0.00 0.07 0.00 81 1015.3
20260831090014 70 259 1.0 3.0 0.00 0.07 0.00 81 1015.2
20260831085504 70 264 1.0 3.0 0.00 0.07 0.00 81 1015.2
20260831085008 70 288 1.0 3.0 0.00 0.07 0.00 82 1015.2
20260831084653 70 232 1.0 3.0 0.00 0.07 0.00 82 1015.3
20260831084518 70 288 1.0 3.0 0.00 0.07 0.00 82 1015.2
20260831084007 70 205 1.0 3.0 0.00 0.07 0.00 82 1015.2
20260831083511 71 238 1.0 3.0 0.00 0.07 0.00 82 1015.1
20260831083110 71 214 1.0 2.0 0.00 0.07 0.00 81 1015.1
20260831083027 71 249 1.0 2.0 0.00 0.07 0.00 81 1015.1
20260831082510 71 314 0.0 2.0 0.00 0.07 0.00 81 1015.0
20260831082016 71 224 1.0 3.0 0.00 0.07 0.00 81 1015.1
20260831081605 71 116 0.0 3.0 0.00 0.07 0.00 80 1015.1
20260831081530 71 250 0.0 3.0 0.00 0.07 0.00 80 1015.0
20260831081016 71 248 0.0 2.0 0.00 0.07 0.00 80 1015.0
20260831080519 71 306 0.0 2.0 0.00 0.07 0.00 81 1015.0
20260831080125 71 227 0.0 2.0 0.00 0.07 0.00 81 1015.0
20260831080022 71 245 0.0 2.0 0.00 0.07 0.00 81 1015.0
20260831075503 71 50 0.0 2.0 0.00 0.07 0.00 81 1015.0
20260831075004 71 293 0.0 2.0 0.00 0.07 0.00 81 1015.0
20260831074607 71 257 1.0 3.0 0.00 0.07 0.00 81 1015.0
20260831074515 71 355 1.0 3.0 0.00 0.07 0.00 81 1015.0
20260831074006 71 274 1.0 3.0 0.00 0.07 0.00 81 1015.1
20260831073507 71 37 0.0 2.0 0.00 0.07 0.00 81 1015.1
20260831073104 71 266 0.0 2.0 0.00 0.07 0.00 82 1015.2
20260831073030 71 266 0.0 2.0 0.00 0.07 0.00 82 1015.2
20260831072510 71 301 0.0 1.0 0.00 0.07 0.00 81 1015.3
20260831072016 71 283 0.0 1.0 0.00 0.07 0.00 81 1015.3
20260831071612 71 168 0.0 2.0 0.00 0.07 0.00 81 1015.4
20260831071527 71 359 0.0 2.0 0.00 0.07 0.00 81 1015.3
20260831071015 71 239 0.0 2.0 0.00 0.07 0.00 80 1015.4
20260831070511 71 152 0.0 2.0 0.00 0.07 0.00 80 1015.4
20260831070107 71 270 0.0 2.0 0.00 0.07 0.00 80 1015.4
20260831070032 71 300 0.0 2.0 0.00 0.07 0.00 80 1015.4
20260831065517 71 243 1.0 2.0 0.00 0.07 0.00 80 1015.4
20260831065015 71 257 1.0 2.0 0.00 0.07 0.00 79 1015.4
20260831064610 71 176 0.0 1.0 0.00 0.07 0.00 79 1015.5
20260831064510 71 282 0.0 1.0 0.00 0.07 0.00 79 1015.5
20260831064007 72 285 0.0 1.0 0.00 0.07 0.00 79 1015.5
20260831063504 72 278 0.0 1.0 0.00 0.07 0.00 79 1015.5
20260831063113 72 253 0.0 3.0 0.00 0.07 0.00 79 1015.6
20260831063021 72 270 0.0 3.0 0.00 0.07 0.00 79 1015.6
20260831062510 72 272 0.0 3.0 0.00 0.07 0.00 79 1015.6
20260831062013 72 160 0.0 3.0 0.00 0.07 0.00 78 1015.5
20260831061605 72 0 0.0 3.0 0.00 0.07 0.00 78 1015.7
20260831061525 72 144 0.0 3.0 0.00 0.07 0.00 78 1015.5
20260831061013 72 331 0.0 3.0 0.00 0.07 0.00 78 1015.5
20260831060512 72 167 0.0 3.0 0.00 0.07 0.00 77 1015.5
20260831060127 72 343 0.0 2.0 0.00 0.07 0.00 77 1015.6
20260831060033 72 122 0.0 2.0 0.00 0.07 0.00 77 1015.5
20260831055516 72 176 0.0 2.0 0.00 0.07 0.00 77 1015.6
20260831055016 72 226 0.0 1.0 0.00 0.07 0.00 77 1015.6
20260831054603 73 250 0.0 1.0 0.00 0.07 0.00 77 1015.7
20260831054531 73 273 0.0 1.0 0.00 0.07 0.00 77 1015.6
20260831054017 73 178 0.0 1.0 0.00 0.07 0.00 77 1015.7
20260831053516 72 238 0.0 2.0 0.00 0.07 0.00 78 1015.7
20260831053111 72 45 0.0 2.0 0.00 0.07 0.00 78 1015.7
20260831053015 72 45 0.0 2.0 0.00 0.07 0.00 78 1015.7
20260831052504 72 224 0.0 2.0 0.00 0.07 0.00 78 1015.8
20260831052008 73 225 0.0 2.0 0.00 0.07 0.00 78 1015.9
20260831051602 73 0 0.0 1.0 0.00 0.07 0.00 78 1015.9
20260831051519 73 139 0.0 1.0 0.00 0.07 0.00 78 1015.9
20260831051007 73 250 0.0 1.0 0.00 0.07 0.00 78 1015.9
20260831050511 73 131 0.0 2.0 0.00 0.07 0.00 77 1015.9
20260831050118 73 243 0.0 2.0 0.00 0.07 0.00 77 1015.8
20260831050027 73 251 0.0 2.0 0.00 0.07 0.00 77 1015.8
20260831045513 73 58 0.0 1.0 0.00 0.07 0.07 77 1015.7
20260831045012 73 136 0.0 1.0 0.00 0.07 0.07 77 1015.7
20260831044602 73 227 0.0 2.0 0.00 0.07 0.07 77 1015.8
20260831044531 73 224 0.0 1.0 0.00 0.07 0.07 77 1015.7
20260831044014 73 154 0.0 2.0 0.00 0.07 0.07 77 1015.7
20260831043519 73 273 0.0 2.0 0.00 0.07 0.07 77 1015.7
20260831043103 73 77 0.0 2.0 0.00 0.07 0.07 78 1015.7
20260831043034 73 219 0.0 2.0 0.00 0.07 0.07 78 1015.8
20260831042518 73 158 0.0 2.0 0.00 0.07 0.07 77 1015.8
20260831042004 73 339 0.0 1.0 0.00 0.07 0.07 78 1015.9
20260831041606 73 0 0.0 1.0 0.00 0.07 0.07 78 1016.0
20260831041516 73 213 0.0 1.0 0.00 0.07 0.07 78 1015.9
20260831041008 73 153 0.0 1.0 0.00 0.07 0.07 78 1015.9
20260831040508 73 219 0.0 1.0 0.00 0.07 0.07 78 1015.9
20260831040106 73 153 0.0 1.0 0.00 0.07 0.07 78 1015.9
20260831040026 73 153 0.0 1.0 0.00 0.07 0.07 78 1015.8
20260831035510 73 162 0.0 1.0 0.00 0.07 0.07 78 1015.8
20260831035009 73 204 0.0 1.0 0.00 0.07 0.07 78 1015.8
20260831034612 73 0 0.0 2.0 0.00 0.07 0.07 79 1015.8
20260831034526 73 278 0.0 1.0 0.00 0.07 0.07 78 1015.8
20260831034015 73 269 0.0 2.0 0.00 0.07 0.07 79 1015.8
20260831033513 73 212 0.0 2.0 0.00 0.07 0.07 79 1015.8
20260831033107 72 174 0.0 2.0 0.00 0.07 0.07 81 1015.8
20260831033031 72 174 0.0 2.0 0.00 0.07 0.07 81 1015.8
20260831032516 72 212 0.0 2.0 0.00 0.07 0.07 82 1015.8
20260831032014 72 171 0.0 2.0 0.00 0.07 0.07 83 1015.9
20260831031605 72 153 0.0 2.0 0.00 0.07 0.07 84 1015.9
20260831031540 71 153 0.0 2.0 0.00 0.07 0.07 84 1016.0
20260831031013 71 148 0.0 1.0 0.00 0.07 0.07 86 1016.0
20260831030507 71 178 0.0 1.0 0.00 0.07 0.07 87 1016.0
20260831030106 71 0 0.0 1.0 0.00 0.07 0.07 88 1016.0
20260831030017 71 178 0.0 1.0 0.00 0.07 0.07 88 1015.9
20260831025510 71 102 0.0 1.0 0.00 0.07 0.07 89 1015.7
20260831025011 71 91 0.0 2.0 0.00 0.07 0.07 90 1015.9
20260831024603 71 96 0.0 2.0 0.00 0.07 0.07 90 1016.0
20260831024521 71 96 0.0 2.0 0.00 0.07 0.07 90 1016.0
20260831024012 71 86 0.0 1.0 0.00 0.07 0.07 90 1016.2
20260831023512 71 83 0.0 2.0 0.00 0.07 0.07 90 1016.3
20260831023110 71 83 0.0 2.0 0.00 0.07 0.07 90 1016.3
20260831023029 71 83 0.0 2.0 0.00 0.07 0.07 90 1016.3
20260831022513 71 84 0.0 1.0 0.00 0.07 0.07 90 1016.2
20260831022003 71 84 0.0 0.0 0.00 0.07 0.07 90 1016.2
20260831021607 71 0 0.0 0.0 0.00 0.07 0.07 90 1016.2
20260831021508 71 84 0.0 0.0 0.00 0.07 0.07 90 1016.2
20260831021004 72 84 0.0 0.0 0.00 0.07 0.07 90 1016.1
20260831020505 72 84 0.0 0.0 0.00 0.07 0.07 89 1016.1
20260831020109 72 0 0.0 0.0 0.00 0.07 0.07 89 1016.0
20260831020014 72 84 0.0 0.0 0.00 0.07 0.07 88 1016.0
20260831015508 73 84 0.0 0.0 0.00 0.07 0.07 87 1015.9
20260831015008 73 84 0.0 0.0 0.00 0.07 0.07 87 1016.0
20260831014626 73 0 0.0 0.0 0.00 0.07 0.07 86 1015.8
20260831014518 73 84 0.0 0.0 0.00 0.07 0.07 86 1015.8
20260831014014 74 84 0.0 0.0 0.00 0.07 0.07 86 1015.8
20260831013511 74 84 0.0 0.0 0.00 0.07 0.07 85 1016.0
20260831013107 74 0 0.0 0.0 0.00 0.07 0.07 86 1015.9
20260831013025 74 84 0.0 0.0 0.00 0.07 0.07 86 1016.0
20260831012512 75 84 0.0 0.0 0.00 0.07 0.07 86 1015.9
20260831012014 75 84 0.0 0.0 0.00 0.07 0.07 85 1015.9
20260831011605 75 0 0.0 1.0 0.00 0.07 0.07 85 1015.7
20260831011530 75 84 0.0 1.0 0.00 0.07 0.07 85 1015.8
20260831011015 75 84 0.0 1.0 0.00 0.07 0.07 85 1015.8
20260831010504 75 84 1.0 1.0 0.00 0.07 0.07 86 1015.6
20260831010109 75 96 0.0 1.0 0.00 0.07 0.07 86 1015.4
20260831010009 75 90 0.0 1.0 0.00 0.07 0.07 86 1015.5
20260831004605 76 0 0.0 1.0 0.00 0.07 0.07 86 1015.4
20260831004515 76 96 0.0 1.0 0.00 0.07 0.07 86 1015.5
20260831004010 76 96 0.0 1.0 0.00 0.07 0.07 85 1015.5
20260831003509 77 101 0.0 1.0 0.00 0.07 0.07 84 1015.6
20260831003107 77 102 0.0 1.0 0.00 0.07 0.07 84 1015.6
20260831003023 77 101 0.0 1.0 0.00 0.07 0.07 83 1015.7
20260831002510 78 101 0.0 0.0 0.00 0.07 0.07 82 1015.8
20260831002012 78 103 0.0 0.0 0.00 0.07 0.07 80 1015.8
20260831001620 78 0 0.0 0.0 0.00 0.07 0.07 80 1015.7
20260831001527 78 205 0.0 0.0 0.00 0.07 0.07 79 1015.8
20260831001015 79 205 0.0 0.0 0.00 0.07 0.07 78 1015.8
20260831000516 79 205 0.0 1.0 0.00 0.07 0.07 77 1015.8
20260831000110 79 0 0.0 1.0 0.00 0.07 0.07 75 1015.7
20260831000035 79 205 0.0 1.0 0.00 0.07 0.07 75 1015.8
20260830235513 80 210 0.0 1.0 0.00 0.07 0.07 75 1015.7
20260830235005 80 210 0.0 0.0 0.00 0.07 0.07 74 1015.8
20260830234613 81 0 0.0 0.0 0.00 0.07 0.07 74 1015.7
20260830234522 81 228 0.0 0.0 0.00 0.07 0.07 74 1015.8
20260830234005 81 228 0.0 0.0 0.00 0.07 0.07 73 1015.8
20260830233508 82 228 0.0 0.0 0.00 0.07 0.07 72 1015.8
20260830233133 83 0 0.0 1.0 0.00 0.07 0.07 71 1015.8
20260830233017 83 228 0.0 1.0 0.00 0.07 0.07 70 1015.9
20260830232511 84 229 0.0 1.0 0.00 0.07 0.07 68 1015.8
20260830232015 85 227 0.0 0.0 0.00 0.07 0.07 67 1015.8
20260830231605 85 0 0.0 1.0 0.00 0.07 0.07 66 1015.8
20260830231524 85 304 0.0 1.0 0.00 0.07 0.07 66 1015.8
20260830231015 86 304 0.0 1.0 0.00 0.07 0.07 65 1015.8
20260830230511 86 262 0.0 1.0 0.00 0.07 0.07 65 1015.8
20260830230120 86 0 0.0 1.0 0.00 0.07 0.07 65 1015.7
20260830230031 86 205 0.0 1.0 0.00 0.07 0.07 66 1015.8
20260830225513 86 262 0.0 1.0 0.00 0.07 0.07 65 1015.8
20260830225016 86 151 0.0 2.0 0.00 0.07 0.07 66 1015.7
20260830224601 85 0 0.0 2.0 0.00 0.07 0.07 69 1015.7
20260830224531 85 222 0.0 2.0 0.00 0.07 0.07 68 1015.7
20260830224015 85 195 0.0 1.0 0.00 0.07 0.07 68 1015.6
20260830223504 84 243 0.0 1.0 0.00 0.07 0.07 70 1015.7
20260830223104 84 0 0.0 1.0 0.00 0.07 0.07 69 1015.8
20260830223016 84 239 0.0 1.0 0.00 0.07 0.07 70 1015.8
20260830222507 84 254 0.0 1.0 0.00 0.07 0.07 67 1015.8
20260830222012 84 198 0.0 1.0 0.00 0.07 0.07 67 1015.6
20260830221610 84 196 0.0 2.0 0.00 0.07 0.07 68 1015.5
20260830221529 84 202 0.0 2.0 0.00 0.07 0.07 69 1015.5
20260830221010 83 256 0.0 4.0 0.00 0.07 0.07 68 1015.3
20260830220510 83 243 1.0 4.0 0.00 0.07 0.07 68 1015.2
20260830220109 83 242 1.0 4.0 0.00 0.07 0.07 69 1015.2
20260830220030 83 207 1.0 4.0 0.00 0.07 0.07 68 1015.1
20260830215512 84 6 1.0 5.0 0.00 0.07 0.07 69 1014.9
20260830215014 84 174 2.0 5.0 0.00 0.07 0.07 68 1015.0
20260830214606 84 56 2.0 5.0 0.00 0.07 0.07 67 1015.0
20260830214530 84 141 2.0 5.0 0.00 0.07 0.07 67 1015.0
20260830214013 84 317 1.0 5.0 0.00 0.07 0.07 68 1015.0
20260830213516 85 290 2.0 5.0 0.00 0.07 0.07 67 1014.9
20260830213103 85 130 2.0 5.0 0.00 0.07 0.07 67 1015.0
20260830213030 85 226 2.0 5.0 0.00 0.07 0.07 67 1014.9
20260830212519 85 283 2.0 5.0 0.00 0.07 0.07 70 1014.9
20260830212008 84 272 2.0 5.0 0.00 0.07 0.07 69 1014.9
20260830211603 84 285 1.0 4.0 0.00 0.07 0.07 68 1015.0
20260830211515 84 52 1.0 4.0 0.00 0.07 0.07 68 1015.0
20260830211008 84 254 2.0 4.0 0.00 0.07 0.07 69 1015.0
20260830210509 84 120 1.0 4.0 0.00 0.07 0.07 71 1015.1
20260830210106 84 165 1.0 4.0 0.00 0.07 0.07 71 1015.3
20260830210027 84 62 1.0 4.0 0.00 0.07 0.07 72 1015.3
20260830205512 84 292 1.0 3.0 0.00 0.07 0.07 72 1015.5
20260830205011 84 139 1.0 3.0 0.00 0.07 0.07 72 1015.6
20260830204606 84 221 1.0 4.0 0.00 0.07 0.07 71 1015.8
20260830204536 84 214 1.0 3.0 0.00 0.07 0.07 71 1015.7
20260830204014 84 145 1.0 4.0 0.00 0.07 0.07 72 1015.7
20260830203516 84 225 2.0 4.0 0.00 0.07 0.07 69 1015.8
20260830203104 85 276 1.0 6.0 0.00 0.07 0.07 68 1015.7
20260830203038 85 313 1.0 4.0 0.00 0.07 0.07 68 1015.8
20260830202514 85 258 2.0 6.0 0.00 0.07 0.07 67 1015.7
20260830202016 85 71 2.0 6.0 0.00 0.07 0.07 65 1015.8
20260830201606 86 40 2.0 5.0 0.00 0.07 0.07 66 1015.7
20260830201532 86 41 2.0 5.0 0.00 0.07 0.07 65 1015.8
20260830201015 86 314 2.0 6.0 0.00 0.07 0.07 65 1015.9
20260830200508 86 273 1.0 6.0 0.00 0.07 0.07 67 1015.9
20260830200029 86 310 2.0 5.0 0.00 0.07 0.07 68 1016.0
20260830195509 86 271 2.0 5.0 0.00 0.07 0.07 67 1015.9
20260830195008 86 216 2.0 5.0 0.00 0.07 0.07 70 1015.9
20260830194616 85 337 2.0 4.0 0.00 0.07 0.07 71 1016.0
20260830194525 85 286 2.0 4.0 0.00 0.07 0.07 70 1015.9
20260830194015 85 154 2.0 4.0 0.00 0.07 0.07 71 1016.0
20260830193512 85 188 1.0 4.0 0.00 0.07 0.07 71 1016.0
20260830193102 84 234 1.0 5.0 0.00 0.07 0.07 72 1016.1
20260830193030 84 288 1.0 5.0 0.00 0.07 0.07 72 1016.0
20260830192515 84 123 1.0 5.0 0.00 0.07 0.07 74 1016.0
20260830192016 84 90 1.0 3.0 0.00 0.07 0.07 74 1016.0
20260830191605 83 269 1.0 5.0 0.00 0.07 0.07 75 1016.1
20260830191534 83 12 0.0 5.0 0.00 0.07 0.07 75 1016.1
20260830191017 83 245 1.0 5.0 0.00 0.07 0.07 74 1016.2
20260830190519 83 218 1.0 5.0 0.00 0.07 0.07 74 1016.2
20260830190104 82 262 1.0 5.0 0.00 0.07 0.07 73 1016.2
20260830190032 82 170 1.0 5.0 0.00 0.07 0.07 73 1016.2
20260830185508 82 146 1.0 4.0 0.00 0.07 0.07 74 1016.3
20260830185007 82 93 2.0 4.0 0.00 0.07 0.07 74 1016.3
20260830184605 82 128 1.0 4.0 0.00 0.07 0.07 75 1016.3
20260830184524 82 143 2.0 4.0 0.00 0.07 0.07 75 1016.3
20260830184009 82 305 1.0 4.0 0.00 0.07 0.07 74 1016.4
20260830183511 82 225 1.0 4.0 0.00 0.07 0.07 74 1016.4